Regional Weather Roundup
Issued by NWS

Home | Current Version | Previous Version | Text Only | Print | Product List | Glossary Off
Versions: 1 2 3 4 5 6 7 8 9 10 11 12 13 14 15 16 17 18 19 20 21 22 23 24 25 26 27 28 29 30 31 32 33 34 35 36 37 38 39 40 41 42 43 44 45 46 47 48 49 50

000
ASUS43 KMPX 312201
RWRMN
WEATHER ROUNDUP FOR MINNESOTA
NATIONAL WEATHER SERVICE TWIN CITIES/CHANHASSEN MN
400 PM CST SAT JAN 31 2015


NOTE: "FAIR" INDICATES FEW OR NO CLOUDS BELOW 12,000 FEET WITH NO
SIGNIFICANT WEATHER AND/OR OBSTRUCTIONS TO VISIBILITY. N/A MEANS
CURRENT SKY AND/OR WEATHER CONDITIONS ARE NOT AVAILABLE.

MNZ060>063-068>070-312300-
   Twin Cities Metro

CITY           SKY/WX    TMP DP  RH WIND       PRES   REMARKS
TWIN CITIES    CLOUDY    28  17  63 NE9       30.19S WCI  19
ST PAUL        CLOUDY    28  18  66 NE8       30.21S WCI  20
CRYSTAL        CLOUDY    29  18  63 NE6       30.18S WCI  23
BLAINE         CLOUDY    30  19  64 NE8       30.19R WCI  23
LAKEVILLE      CLOUDY    27  19  74 NE10      30.17F WCI  17
EDEN PRAIRIE   CLOUDY    27  18  69 E10       30.17S WCI  17
SOUTH ST PAUL  CLOUDY    28  19  68 N6        30.19F WCI  22
LAKE ELMO      CLOUDY    28  19  69 NE7       30.20S WCI  21
$$
MNZ001>005-007-008-013>017-022>024-027-028-312300-
   Northwest Minnesota

CITY           SKY/WX    TMP DP  RH WIND       PRES   REMARKS
BEMIDJI        SUNNY      5  -6  62 N9        30.31R WCI  -9
HALLOCK        SUNNY     -2 -15  55 N17       30.48S WCI -24
ROSEAU         CLEAR      3  -9  55 N9        30.42S WCI -11
WARROAD        CLEAR      1 -11  55 NE9       30.42S WCI -14
THIEF RVR FALL PTSUNNY    1  -9  60 N17       30.39R WCI -19
CROOKSTON      PTSUNNY    5  -8  56 N13       30.42S WCI -12
FOSSTON        MOSUNNY    5  -2  72 N14       30.33S WCI -12
DETROIT LAKES  MOSUNNY   18   0  45 NE10      30.25F WCI   6
MOORHEAD       PTSUNNY   12  -2  52 N20G26    30.33S WCI  -6
PARK RAPIDS    FAIR      15  -6  39 N12       30.23F WCI   2
MAHNOMEN       FAIR       8  -2  64 N18       30.30S WCI -11
$$
MNZ006-009>011-018-025>026-312300-
   North Central Minnesota

CITY           SKY/WX    TMP DP  RH WIND       PRES   REMARKS
BAUDETTE       CLEAR      0 -11  59 N14       30.38S WCI -19
FLAG ISLAND    CLEAR     -2 -13  60 N10       30.43S WCI -19
INTL FALLS     CLEAR      4  -8  57 N12       30.36R WCI -12
WASKISH        PTCLDY     3  -6  66 N8        30.36R WCI -10
BIG FORK       CLEAR     12  -6  44 N7        30.30S WCI   2
LONGVILLE      SUNNY     16   1  53 N6        30.26F WCI   7
GRAND RAPIDS   CLEAR     16  -2  45 N10       30.25S WCI   3
CRANE LAKE     CLEAR      5  -9  51 N5        30.37R WCI  -4
ORR            FAIR       7  -9  47 CALM      30.29S
COOK           CLEAR      9  -8  47 N5        30.31R WCI   0
WALKER         FAIR      11  -4  52 N8        30.27S WCI  -1
$$
MNZ012-019>021-037-312300-
   Northeast Minnesota

CITY           SKY/WX    TMP DP  RH WIND       PRES   REMARKS
DULUTH         CLEAR     18  -2  41 N9        30.22F WCI   7
ELY            CLEAR      9  -6  52 N5        30.29R WCI   0
HIBBING        CLEAR     14  -3  47 N10       30.27R WCI   1
EVELETH        CLEAR     12  -4  48 N7        30.28S WCI   2
DULUTH HARBOR  CLEAR     23   9  54 CALM      30.29S
TWO HARBORS    CLEAR     21   1  42 N6        30.25R WCI  14
SILVER BAY     CLEAR     18   0  45 N5        30.26R WCI  11
GRAND MARAIS     N/A     14  -6  40 VRB7      30.34R WCI   4
G MARAIS ARPRT CLEAR      5  -9  51 NW12      30.23R WCI -11
$$
MNZ029>031-032-039>041-046>048-054>057-064-312300-
   West Central Minnesota

CITY           SKY/WX    TMP DP  RH WIND       PRES   REMARKS
FERGUS FALLS   CLOUDY    18   1  49 N9G17     30.27R WCI   6
WHEATON        PTSUNNY   18   7  62 N13G18    30.26R WCI   4
MORRIS         CLOUDY    27  10  50 NE9       30.19S WCI  17
ALEXANDRIA     CLOUDY    23   2  40 NE12      30.19R WCI  12
ELBOW LAKE     CLOUDY    22   3  44 NE9       30.21R WCI  11
WADENA         FAIR      18  -2  41 NE13G20   30.21S WCI   4
GLENWOOD       CLOUDY    27   3  36 NE13      30.18R WCI  16
APPLETON       CLOUDY    28  18  64 NE14      30.18F WCI  17
BENSON         CLOUDY    28  14  54 E9        30.18S WCI  20
ORTONVILLE     CLOUDY    21  12  68 N16       30.19S WCI   7
MADISON        CLOUDY    28  23  80 NE12      30.18S WCI  18
WILLMAR        FAIR      28  18  64 E10       30.18S WCI  19
$$
MNZ033>034-036-042>043-049>051-058-059-312300-
   Central Minnesota

CITY           SKY/WX    TMP DP  RH WIND       PRES   REMARKS
ST CLOUD       CLOUDY    27  13  55 NE9       30.18S WCI  18
SAUK CENTRE    FAIR      25   6  44 NE10G17   30.19R WCI  14
PAYNESVILLE    CLOUDY    25  13  61 N9        30.18S WCI  16
AITKIN         SUNNY     25   1  36 N9        30.22R WCI  15
PINE RIVER     SUNNY     16   1  53 N9        30.27F WCI   4
BRAINERD       PTSUNNY   21   5  50 N12       30.21F WCI   9
STAPLES        CLOUDY    18  -4  38 NE12      30.21F WCI   5
LONG PRAIRIE   CLOUDY    23   3  42 NE9       30.19S WCI  13
LITTLE FALLS   PTSUNNY   27   5  39 NE5       30.21S WCI  21
LITCHFIELD     PTSUNNY   28  19  69 E8        30.18S WCI  20
BUFFALO        PTSUNNY   28  18  65 NE7       30.19F WCI  21
MAPLE LAKE     CLOUDY    30  20  65 NE6       30.19S WCI  24
$$
MNZ037-044-045-052-053-312300-
   East Central Minnesota

CITY           SKY/WX    TMP DP  RH WIND       PRES   REMARKS
PRINCETON      CLOUDY    28  10  47 NE8       30.19S WCI  20
MORA           MOSUNNY   27   7  43 N7        30.23R WCI  19
CAMBRIDGE      CLOUDY    30  12  47 N7        30.19R WCI  23
RUSH CITY      CLOUDY    28  11  49 N9        30.21R WCI  19
MOOSE LAKE     CLEAR     23   3  42 N10G17    30.21S WCI  12
HINCKLEY       FAIR      27   9  46 N9G16     30.22R WCI  17
CLOQUET        CLEAR     19   0  42 N9        30.23S WCI   9
MCGREGOR       SUNNY     21   5  49 NE8       30.23S WCI  12
$$
MNZ071>073-080-081-089-090-097-098-312300-
   Southwest Minnesota

CITY           SKY/WX    TMP DP  RH WIND       PRES   REMARKS
MONTEVIDEO     CLOUDY    27  19  74 E10       30.18F WCI  17
GRANITE FALLS  CLOUDY    26  21  81 NE12      30.18S WCI  16
CANBY          CLOUDY    25  23  91 NE12      30.16F WCI  14
MARSHALL       CLOUDY    25  21  86 NE15      30.15S WCI  12
REDWOOD FALLS  CLOUDY    27  21  78 NE7       30.15F WCI  19
OLIVIA         CLOUDY    27  21  80 NE10      30.16S WCI  17
PIPESTONE      CLOUDY    25  23  93 E7        30.06F FOG     WCI  17
WINDOM         CLOUDY    27  27 100 NE15      30.09F FOG     WCI  15
WORTHINGTON    CLOUDY    27  23  86 NE15      30.07F WCI  15
JACKSON        CLOUDY    28  27  93 NE15      30.08F FOG     WCI  17
TRACY          CLOUDY    26  26  97 NE10      30.12S FOG     WCI  17
SLAYTON        CLOUDY    25  24  96 NE8       30.09S FOG     WCI  16
$$
MNZ065>067-074>077-082>085-091>093-312300-
   South Central Minnesota

CITY           SKY/WX    TMP DP  RH WIND       PRES   REMARKS
MANKATO        CLOUDY    28  23  80 NE12      30.13F WCI  18
NEW ULM        CLOUDY    27  23  86 NE12      30.13F WCI  16
ST JAMES       CLOUDY    28  27  93 NE9G16    30.14S FOG     WCI  20
FAIRMONT       CLOUDY    28  25  86 NE12      30.09S WCI  18
GLENCOE        CLOUDY    28  23  80 NE8       30.16F WCI  20
FARIBAULT      CLOUDY    28  23  80 NE9       30.15F WCI  20
OWATONNA       CLOUDY    28  25  86 NE10      30.13F WCI  19
WASECA         CLOUDY    30  27  86 NE9       30.14F FOG     WCI  22
ALBERT LEA     CLOUDY    30  27  86 E10       30.10F WCI  21
$$
MNZ078>079-086>088-094>096-312300-
   Southeast Minnesota

CITY           SKY/WX    TMP DP  RH WIND       PRES   REMARKS
ROCHESTER      CLOUDY    29  23  78 NE12      30.12F WCI  19
RED WING       CLOUDY    28  21  74 NE7       30.18S WCI  21
STANTON        CLOUDY    30  23  75 NE12      30.15F WCI  20
DODGE CENTER   CLOUDY    28  25  86 NE10      30.12F WCI  19
WINONA         CLOUDY    32  23  69 NE5       30.18S WCI  27
AUSTIN         CLOUDY    30  27  86 E8        30.11S WCI  23
PRESTON        CLOUDY    28  24  85 NE9       30.13S WCI  20
$$
ABBREVIATIONS USED IN REMARKS
   TC - TEMPERATURES IN CELSIUS
  WCI - WIND CHILL INDEX
   HX - HEAT INDEX
  VSB - VISIBILITY
$$


USA.gov is the U.S. government's official web portal to all federal, state and local government web resources and services.